Regional Weather Roundup
Issued by NWS Charleston, WV

Home | Current Version | Previous Version | Text Only | Print | Product List | Glossary On
Versions: 1 2 3 4 5 6 7 8 9 10 11 12 13 14 15 16 17 18 19 20 21 22 23 24 25 26 27 28 29 30 31 32 33 34 35 36 37 38 39 40 41 42 43 44 45 46 47 48 49 50
000
ASUS41 KRLX 251210
RWRRLX
West Virginia Regional Weather Roundup
National Weather Service Charleston WV
700 AM EST THU DEC 25 2014

Note: "fair" indicates few or no clouds below 12,000 feet with no
significant weather and/or obstructions to visibility.

WVZ003-251300-
Northern Panhandle of West Virginia

CITY           SKY/WX    TMP DP  RH WIND       PRES   REMARKS
WHEELING       LGT RAIN  39  32  76 W15G24    29.83R
$$

WVZ009-251300-
Northwest West Virginia

CITY           SKY/WX    TMP DP  RH WIND       PRES   REMARKS
PARKERSBURG    CLOUDY    40  34  79 W8        29.92R
$$

WVZ006-251300-
Western West Virginia

CITY           SKY/WX    TMP DP  RH WIND       PRES   REMARKS
HUNTINGTON     LGT RAIN  39  35  86 VRB7      29.96R
$$

WVZ015-251300-
West Central West Virginia

CITY           SKY/WX    TMP DP  RH WIND       PRES   REMARKS
CHARLESTON     CLOUDY    41  33  73 W12       29.94R
$$

WVZ022-031-251300-
North Central West Virginia

CITY           SKY/WX    TMP DP  RH WIND       PRES   REMARKS
CLARKSBURG     CLOUDY    41  33  73 SW14G22   29.87R
MORGANTOWN     CLOUDY    41  30  65 W9        29.86R
$$

WVZ025-035-042-045-251300-
Southern West Virginia

CITY           SKY/WX    TMP DP  RH WIND       PRES   REMARKS
BECKLEY        LGT SNOW  34  31  88 W10G20    29.91R FOG
LOGAN          CLOUDY    39  34  81 W13G20    29.94R
BLUEFIELD      MOCLDY    37  29  72 W15G24    29.90R
LEWISBURG      CLOUDY    38  33  84 W9        29.90R
$$

WVZ047-251300-
Northern Mountains of West Virginia

CITY           SKY/WX    TMP DP  RH WIND       PRES   REMARKS
ELKINS         LGT RAIN  37  32  82 W14G28    29.86R
$$

WVZ052-251300-
Eastern Panhandle of West Virginia

CITY           SKY/WX    TMP DP  RH WIND       PRES   REMARKS
MARTINSBURG    CLOUDY    47  28  47 W14G20    29.77R
PETERSBURG     PTCLDY    44  26  48 W7G22     29.81S
$$



USA.gov is the U.S. government's official web portal to all federal, state and local government web resources and services.